Tracking 20621 objects as of 30-Mar-2020
HD Live streaming from Space Station
objects crossing your sky now

ARIANE 2 DEB

Track ARIANE 2 DEB now!


NORAD ID: 27039
Int'l Code: 1989-006U
Perigee: 587.8 km
Apogee: 35,708.9 km
Inclination: 8.1 °
Period: 636.8 minutes
Semi major axis: 24519 km
RCS: 0.3487 m2 (medium)
Launch date: January 27, 1989
Source: France (FR)
Launch site: FRENCH GUIANA (FRGUI)

Note: This is SATELLITE DEBRIS
aabbcc
Your satellite tracking list
Your tracking list is empty




NASA's NSSDC Master Catalog

Two Line Element Set (TLE):
1 27039U 89006U   20088.86914230 -.00000206 +00000-0 -97470-3 0  9995
2 27039 008.1325 299.1520 7161906 030.9798 112.4243 02.26119803154746
Source of the keplerian elements: AFSPC